Weather History for Anaktuvuk Pass, AK

Change the Weather History Date:

Saturday, October 15, 2011

  Actual Average Record
Temperature  
Mean Temperature 21 °F -  
Max Temperature 30 °F 11 °F 35 °F (2013)
Min Temperature 12 °F 2 °F -14 °F (1999)
Degree Days  
Heating Degree Days 44    
Moisture  
Dew Point 21 °F    
Average Humidity 87    
Maximum Humidity 93    
Minimum Humidity 79    
Precipitation  
Precipitation 0.00 in - - ()
Sea Level Pressure  
Sea Level Pressure 29.45 in    
Wind  
Wind Speed 3 mph (South)    
Max Wind Speed 12 mph    
Max Gust Speed -    
Visibility 9 miles    
Events      
Averages and records for this station are not official NWS values.
T = Trace of Precipitation, MM = Missing Value Source: NWS Daily Summary

Daily Weather History Graph

Daily Weather History Graph

Search for Another Location

Airport:

Trip Planner

Search our weather history database for the weather conditions in past years. The results will help you decide how hot, cold, wet, or windy it might be!

Date:

Astronomy

Oct. 15, 2011 Rise Set
Actual Time 9:11 AM AKDT 6:32 PM AKDT
Civil Twilight 8:13 AM AKDT 7:30 PM AKDT
Nautical Twilight 7:08 AM AKDT 8:34 PM AKDT
Astronomical Twilight 6:01 AM AKDT 9:41 PM AKDT
Moon No Moon Rise No Moon Set
Length of Visible Light 11h 16m
Length of Day
9h 21m
Waning Gibbous, 88% of the Moon is Illuminated
Oct 15
Waning Gibbous
Oct 19
Last Quarter
Oct 26
New
Nov 2
First Quarter
Nov 10
Full

Hourly Weather History & Observations

Time (AKDT) Temp. Windchill Dew Point Humidity Pressure Visibility Wind Dir Wind Speed Gust Speed Precip Events Conditions
12:16 AM 12.2 °F - 8.6 °F 85% 29.42 in 10.0 mi Calm Calm - N/A   Clear
12:36 AM 12.2 °F - 8.6 °F 85% 29.42 in 10.0 mi Calm Calm - N/A   Clear
12:56 AM 12.2 °F - 10.4 °F 92% 29.42 in 10.0 mi Calm Calm - N/A   Mostly Cloudy
1:16 AM 14.0 °F - 10.4 °F 86% 29.42 in 10.0 mi Calm Calm - N/A   Overcast
1:36 AM 15.8 °F - 12.2 °F 86% 29.42 in 10.0 mi Calm Calm - N/A   Overcast
1:56 AM 17.6 °F 12.3 °F 14.0 °F 86% 29.43 in 10.0 mi SSW 3.5 mph - N/A   Overcast
2:16 AM 17.6 °F - 12.2 °F 79% 29.42 in 6.0 mi Calm Calm - N/A   Overcast
2:36 AM 17.6 °F 10.7 °F 14.0 °F 86% 29.42 in 4.0 mi South 4.6 mph - N/A   Overcast
2:56 AM 19.4 °F 12.8 °F 15.8 °F 86% 29.42 in 3.0 mi SSW 4.6 mph - N/A   Overcast
3:16 AM 19.4 °F 11.5 °F 15.8 °F 86% 29.42 in 5.0 mi South 5.8 mph - N/A   Overcast
3:36 AM 19.4 °F 14.3 °F 17.6 °F 93% 29.42 in 2.5 mi SSW 3.5 mph - N/A   Overcast
3:56 AM 19.4 °F - 15.8 °F 86% 29.43 in 3.0 mi Calm Calm - N/A   Overcast
4:16 AM 19.4 °F - 17.6 °F 93% 29.43 in 2.5 mi Calm Calm - N/A   Overcast
4:36 AM 19.4 °F - 17.6 °F 93% 29.43 in 3.0 mi Calm Calm - N/A   Overcast
5:16 AM 19.4 °F 14.3 °F 17.6 °F 93% 29.43 in 10.0 mi South 3.5 mph - N/A   Mostly Cloudy
5:36 AM 19.4 °F - 15.8 °F 86% 29.43 in 10.0 mi Calm Calm - N/A   Mostly Cloudy
5:56 AM 19.4 °F - 17.6 °F 93% 29.43 in 10.0 mi Calm Calm - N/A   Overcast
6:16 AM 19.4 °F 14.3 °F 17.6 °F 93% 29.43 in 10.0 mi SSW 3.5 mph - N/A   Overcast
6:36 AM 21.2 °F 14.9 °F 17.6 °F 86% 29.43 in 9.0 mi SSW 4.6 mph - N/A   Overcast
6:56 AM 21.2 °F 16.4 °F 19.4 °F 93% 29.43 in 3.0 mi SSW 3.5 mph - N/A   Overcast
7:16 AM 21.2 °F 14.9 °F 19.4 °F 93% 29.43 in 7.0 mi South 4.6 mph - N/A   Mostly Cloudy
7:36 AM 23.0 °F 17.0 °F 19.4 °F 86% 29.43 in 10.0 mi South 4.6 mph - N/A   Overcast
7:56 AM 23.0 °F 15.8 °F 19.4 °F 86% 29.43 in 10.0 mi SSW 5.8 mph - N/A   Overcast
8:36 AM 23.0 °F 18.4 °F 19.4 °F 86% 29.43 in 6.0 mi South 3.5 mph - N/A   Mostly Cloudy
8:56 AM 23.0 °F - 19.4 °F 86% 29.44 in 10.0 mi Calm Calm - N/A   Overcast
9:16 AM 23.0 °F - 19.4 °F 86% 29.44 in 10.0 mi Calm Calm - N/A   Overcast
9:36 AM 23.0 °F - 21.2 °F 93% 29.44 in 5.0 mi Calm Calm - N/A   Overcast
9:56 AM 24.8 °F 19.1 °F 21.2 °F 86% 29.44 in 5.0 mi South 4.6 mph - N/A   Overcast
10:16 AM 24.8 °F 16.9 °F 21.2 °F 86% 29.44 in 10.0 mi South 6.9 mph - N/A   Overcast
10:36 AM 24.8 °F 20.5 °F 21.2 °F 86% 29.45 in 10.0 mi SW 3.5 mph - N/A   Overcast
10:56 AM 24.8 °F 20.5 °F 21.2 °F 86% 29.45 in 10.0 mi South 3.5 mph - N/A   Mostly Cloudy
11:16 AM 24.8 °F 17.9 °F 21.2 °F 86% 29.45 in 7.0 mi SSW 5.8 mph - N/A   Mostly Cloudy
11:36 AM 24.8 °F 20.5 °F 21.2 °F 86% 29.45 in 10.0 mi SSW 3.5 mph - N/A   Scattered Clouds
11:56 AM 24.8 °F 20.5 °F 21.2 °F 86% 29.46 in 10.0 mi SSW 3.5 mph - N/A   Mostly Cloudy
12:16 PM 26.6 °F 20.0 °F 23.0 °F 86% 29.46 in 8.0 mi SSW 5.8 mph - N/A   Overcast
12:36 PM 26.6 °F 21.2 °F 24.8 °F 93% 29.46 in 5.0 mi South 4.6 mph - N/A   Overcast
1:16 PM 26.6 °F 16.8 °F 24.8 °F 93% 29.46 in 10.0 mi South 10.4 mph - N/A   Scattered Clouds
1:36 PM 26.6 °F 16.8 °F 24.8 °F 93% 29.46 in 8.0 mi South 10.4 mph - N/A   Mostly Cloudy
1:56 PM 28.4 °F 19.7 °F 24.8 °F 86% 29.46 in 10.0 mi South 9.2 mph - N/A   Overcast
2:16 PM 28.4 °F 19.7 °F 24.8 °F 86% 29.47 in 10.0 mi South 9.2 mph - N/A   Mostly Cloudy
2:36 PM 28.4 °F 19.7 °F 24.8 °F 86% 29.47 in 10.0 mi SSE 9.2 mph - N/A   Mostly Cloudy
2:56 PM 28.4 °F 19.7 °F 26.6 °F 93% 29.47 in 10.0 mi South 9.2 mph - N/A   Mostly Cloudy
3:16 PM 28.4 °F 19.7 °F 24.8 °F 86% 29.47 in 10.0 mi South 9.2 mph - N/A   Scattered Clouds
3:36 PM 28.4 °F 20.4 °F 24.8 °F 86% 29.47 in 10.0 mi South 8.1 mph - N/A   Scattered Clouds
3:56 PM 28.4 °F 19.7 °F 24.8 °F 86% 29.47 in 10.0 mi SSE 9.2 mph - N/A   Mostly Cloudy
4:16 PM 28.4 °F 22.2 °F 24.8 °F 86% 29.48 in 10.0 mi South 5.8 mph - N/A   Mostly Cloudy
4:36 PM 28.4 °F 20.4 °F 26.6 °F 93% 29.48 in 10.0 mi South 8.1 mph - N/A   Overcast
4:56 PM 30.2 °F 23.4 °F 26.6 °F 86% 29.48 in 9.0 mi South 6.9 mph - N/A   Overcast
5:16 PM 30.2 °F 22.6 °F 26.6 °F 86% 29.48 in 10.0 mi SSE 8.1 mph - N/A   Overcast
5:36 PM 30.2 °F 24.3 °F 24.8 °F 80% 29.48 in 10.0 mi South 5.8 mph - N/A   Overcast
5:56 PM 30.2 °F 26.7 °F 26.6 °F 86% 29.48 in 10.0 mi South 3.5 mph - N/A   Overcast
6:16 PM 30.2 °F 21.9 °F 26.6 °F 86% 29.48 in 10.0 mi South 9.2 mph - N/A   Overcast
6:36 PM 30.2 °F 24.3 °F 26.6 °F 86% 29.49 in 10.0 mi South 5.8 mph - N/A   Overcast
6:56 PM 30.2 °F 24.3 °F 26.6 °F 86% 29.49 in 10.0 mi South 5.8 mph - N/A   Overcast
7:16 PM 30.2 °F 22.6 °F 26.6 °F 86% 29.49 in 10.0 mi SSE 8.1 mph - N/A   Overcast
7:36 PM 30.2 °F 23.4 °F 24.8 °F 80% 29.49 in 10.0 mi SSE 6.9 mph - N/A   Overcast
7:56 PM 30.2 °F 25.4 °F 24.8 °F 80% 29.49 in 10.0 mi SSE 4.6 mph - N/A   Overcast
8:16 PM 30.2 °F 24.3 °F 26.6 °F 86% 29.50 in 10.0 mi SSE 5.8 mph - N/A   Overcast
8:36 PM 30.2 °F 23.4 °F 26.6 °F 86% 29.50 in 10.0 mi South 6.9 mph - N/A   Overcast
8:56 PM 30.2 °F 24.3 °F 26.6 °F 86% 29.50 in 10.0 mi SSE 5.8 mph - N/A   Overcast
9:16 PM 30.2 °F 23.4 °F 26.6 °F 86% 29.50 in 10.0 mi SSE 6.9 mph - N/A   Overcast
9:36 PM 28.4 °F 18.5 °F 26.6 °F 93% 29.51 in 10.0 mi South 11.5 mph - N/A   Overcast
9:56 PM 30.2 °F 21.9 °F 26.6 °F 86% 29.51 in 10.0 mi SSE 9.2 mph - N/A   Overcast
10:16 PM 30.2 °F 22.6 °F 26.6 °F 86% 29.52 in 10.0 mi SSE 8.1 mph - N/A   Overcast
10:36 PM 30.2 °F 21.9 °F 26.6 °F 86% 29.52 in 10.0 mi South 9.2 mph - N/A   Overcast
10:56 PM 28.4 °F 19.7 °F 26.6 °F 93% 29.52 in 10.0 mi SSE 9.2 mph - N/A   Overcast
11:16 PM 28.4 °F 22.2 °F 24.8 °F 86% 29.53 in 10.0 mi South 5.8 mph - N/A   Overcast
11:36 PM 30.2 °F 23.4 °F 26.6 °F 86% 29.53 in 10.0 mi SSW 6.9 mph - N/A   Overcast
11:56 PM 28.4 °F 19.1 °F 26.6 °F 93% 29.54 in 10.0 mi SW 10.4 mph - N/A   Scattered Clouds